When you browse on this site, cookies collect data to enhance your experience and personalize the content and advertising you see.
Visit our Privacy Policy to learn more. By continuing to use the site, you agree to this use of cookies and data.
  • In Portugal
  • List of Countries
  • For 7 days
  • Water Temperature
  • Satellite Maps
  • Weather Map
  • Weather Widgets
  • user-avatar
    Login

    Hourly Weather Starosysoevka

    Today, 23 May, Thursday

    Time Temperature Precipitation Wind Pressure Humidity
    00:00 +8°C° 0 mm 1 mps 737 mmHg 94%
    01:00 +8°C° 0 mm 1 mps 737 mmHg 95%
    02:00 +7°C° 0 mm 1 mps 738 mmHg 95%
    03:00 +7°C° 0 mm 1 mps 737 mmHg 96%
    04:00 +7°C° 0 mm 1 mps 738 mmHg 94%
    05:00 +8°C° 0 mm 1 mps 738 mmHg 92%
    06:00 +8°C° 0 mm 1 mps 739 mmHg 91%
    07:00 +11°C° 0 mm 1 mps 739 mmHg 80%
    08:00 +14°C° 0 mm 1 mps 739 mmHg 69%
    09:00 +17°C° 0 mm 0 mps 739 mmHg 58%
    10:00 +19°C° 0 mm 1 mps 739 mmHg 53%
    11:00 +20°C° 0 mm 1 mps 739 mmHg 49%
    12:00 +20°C° 0 mm 2 mps 739 mmHg 44%
    13:00 +20°C° 0 mm 2 mps 739 mmHg 44%
    14:00 +20°C° 0 mm 2 mps 739 mmHg 44%
    15:00 +20°C° 0 mm 2 mps 739 mmHg 44%
    16:00 +20°C° 0 mm 2 mps 740 mmHg 48%
    17:00 +19°C° 0 mm 2 mps 740 mmHg 52%
    18:00 +18°C° 0 mm 2 mps 740 mmHg 56%
    19:00 +16°C° 0 mm 1 mps 740 mmHg 65%
    20:00 +13°C° 0 mm 1 mps 741 mmHg 74%
    21:00 +11°C° 0 mm 1 mps 741 mmHg 81%
    22:00 +11°C° 0 mm 1 mps 741 mmHg 82%
    23:00 +10°C° 0 mm 1 mps 741 mmHg 83%

    Tomorrow, 24 May, Friday

    Time Temperature Precipitation Wind Pressure Humidity
    00:00 +10°C° 0 mm 1 mps 741 mmHg 84%
    01:00 +10°C° 0 mm 1 mps 741 mmHg 81%
    02:00 +9°C° 0 mm 1 mps 742 mmHg 79%
    03:00 +9°C° 0 mm 1 mps 742 mmHg 77%
    04:00 +10°C° 0 mm 1 mps 742 mmHg 74%
    05:00 +11°C° 0 mm 1 mps 742 mmHg 71%
    06:00 +12°C° 0 mm 1 mps 742 mmHg 68%
    07:00 +15°C° 0 mm 2 mps 742 mmHg 60%
    08:00 +19°C° 0 mm 2 mps 741 mmHg 51%
    09:00 +23°C° 0 mm 2 mps 741 mmHg 42%
    10:00 +25°C° 0 mm 2 mps 741 mmHg 38%
    11:00 +26°C° 0 mm 3 mps 741 mmHg 34%
    12:00 +28°C° 0 mm 3 mps 740 mmHg 30%
    13:00 +29°C° 0 mm 3 mps 740 mmHg 30%
    14:00 +29°C° 0 mm 3 mps 740 mmHg 29%
    15:00 +29°C° 0 mm 4 mps 740 mmHg 29%
    16:00 +28°C° 0 mm 3 mps 740 mmHg 35%
    17:00 +26°C° 0 mm 3 mps 739 mmHg 40%
    18:00 +25°C° 0 mm 3 mps 739 mmHg 46%
    19:00 +22°C° 0 mm 3 mps 739 mmHg 48%
    20:00 +20°C° 0 mm 2 mps 739 mmHg 51%
    21:00 +18°C° 0 mm 2 mps 739 mmHg 53%
    22:00 +17°C° 0 mm 2 mps 739 mmHg 52%
    23:00 +17°C° 0 mm 2 mps 739 mmHg 52%

    Day after tomorrow, 25 May, Saturday

    Time Temperature Precipitation Wind Pressure Humidity
    00:00 +16°C° 0 mm 2 mps 739 mmHg 51%
    01:00 +16°C° 0 mm 2 mps 739 mmHg 53%
    02:00 +16°C° 0 mm 2 mps 739 mmHg 55%
    03:00 +15°C° 0 mm 2 mps 739 mmHg 57%
    04:00 +16°C° 0 mm 2 mps 739 mmHg 59%
    05:00 +17°C° 0 mm 2 mps 739 mmHg 61%
    06:00 +18°C° 0 mm 2 mps 739 mmHg 63%
    07:00 +21°C° 0 mm 3 mps 739 mmHg 53%
    08:00 +26°C° 0 mm 4 mps 739 mmHg 43%
    09:00 +29°C° 0 mm 4 mps 740 mmHg 33%
    10:00 +32°C° 0 mm 5 mps 740 mmHg 31%
    11:00 +33°C° 0 mm 5 mps 740 mmHg 28%
    12:00 +35°C° 0 mm 5 mps 740 mmHg 25%
    13:00 +35°C° 0 mm 6 mps 740 mmHg 25%
    14:00 +36°C° 0 mm 6 mps 740 mmHg 25%
    15:00 +36°C° 0 mm 6 mps 740 mmHg 24%
    16:00 +34°C° 0 mm 5 mps 740 mmHg 29%
    17:00 +33°C° 0 mm 4 mps 740 mmHg 33%
    18:00 +30°C° 0 mm 4 mps 740 mmHg 38%
    19:00 +28°C° 0 mm 3 mps 741 mmHg 40%
    20:00 +26°C° 0 mm 3 mps 741 mmHg 42%
    21:00 +24°C° 0 mm 3 mps 742 mmHg 44%
    22:00 +22°C° 0 mm 3 mps 742 mmHg 43%
    23:00 +21°C° 0 mm 2 mps 742 mmHg 42%

    26 May, Sunday

    Time Temperature Precipitation Wind Pressure Humidity
    00:00 +20°C° 0 mm 2 mps 743 mmHg 42%
    01:00 +20°C° 0 mm 2 mps 743 mmHg 42%
    02:00 +20°C° 0 mm 2 mps 743 mmHg 43%
    03:00 +19°C° 0 mm 2 mps 743 mmHg 44%
    04:00 +19°C° 0 mm 2 mps 743 mmHg 48%
    05:00 +20°C° 0 mm 2 mps 743 mmHg 52%
    06:00 +20°C° 0 mm 2 mps 744 mmHg 56%
    07:00 +24°C° 0 mm 2 mps 744 mmHg 47%
    08:00 +27°C° 0 mm 2 mps 744 mmHg 39%
    09:00 +30°C° 0 mm 2 mps 744 mmHg 30%
    10:00 +31°C° 0 mm 2 mps 744 mmHg 26%
    11:00 +33°C° 0 mm 3 mps 744 mmHg 22%
    12:00 +34°C° 0 mm 3 mps 743 mmHg 18%
    13:00 +35°C° 0 mm 3 mps 743 mmHg 18%
    14:00 +35°C° 0 mm 3 mps 742 mmHg 19%
    15:00 +36°C° 0 mm 3 mps 742 mmHg 19%
    16:00 +34°C° 0 mm 3 mps 742 mmHg 24%
    17:00 +33°C° 0 mm 3 mps 741 mmHg 28%
    18:00 +31°C° 0 mm 2 mps 741 mmHg 33%
    19:00 +27°C° 0 mm 2 mps 741 mmHg 34%
    20:00 +24°C° 0 mm 2 mps 741 mmHg 35%
    21:00 +20°C° 0 mm 2 mps 741 mmHg 36%
    22:00 +19°C° 0 mm 2 mps 741 mmHg 40%
    23:00 +19°C° 0 mm 3 mps 741 mmHg 43%

    27 May, Monday

    Time Temperature Precipitation Wind Pressure Humidity
    00:00 +19°C° 0 mm 3 mps 741 mmHg 47%
    01:00 +19°C° 0 mm 3 mps 741 mmHg 48%
    02:00 +19°C° 0 mm 3 mps 740 mmHg 50%
    03:00 +19°C° 0 mm 3 mps 740 mmHg 51%
    04:00 +19°C° 0 mm 3 mps 740 mmHg 53%
    05:00 +19°C° 0 mm 3 mps 740 mmHg 54%
    06:00 +19°C° 0 mm 2 mps 740 mmHg 56%
    07:00 +22°C° 0 mm 4 mps 739 mmHg 48%
    08:00 +26°C° 0 mm 5 mps 739 mmHg 41%
    09:00 +29°C° 0 mm 6 mps 739 mmHg 34%
    10:00 +29°C° 0 mm 7 mps 739 mmHg 32%
    11:00 +30°C° 0 mm 7 mps 738 mmHg 30%
    12:00 +32°C° 0 mm 7 mps 737 mmHg 28%
    13:00 +30°C° 0 mm 7 mps 737 mmHg 27%
    14:00 +30°C° 0 mm 7 mps 736 mmHg 26%
    15:00 +29°C° 0 mm 7 mps 736 mmHg 26%
    16:00 +28°C° 0 mm 6 mps 736 mmHg 33%
    17:00 +26°C° 0 mm 5 mps 736 mmHg 41%
    18:00 +24°C° 0 mm 3 mps 736 mmHg 48%
    19:00 +22°C° 0 mm 3 mps 736 mmHg 53%
    20:00 +20°C° 0 mm 3 mps 736 mmHg 58%
    21:00 +19°C° 0 mm 2 mps 736 mmHg 63%
    22:00 +18°C° 0.9 mm 2 mps 736 mmHg 71%
    23:00 +17°C° 0.9 mm 2 mps 735 mmHg 80%

    28 May, Tuesday

    Time Temperature Precipitation Wind Pressure Humidity
    00:00 +16°C° 0.9 mm 2 mps 735 mmHg 88%
    01:00 +14°C° 4 mm 2 mps 735 mmHg 91%
    02:00 +11°C° 4 mm 3 mps 734 mmHg 94%
    03:00 +8°C° 4 mm 4 mps 734 mmHg 96%
    04:00 +8°C° 3 mm 3 mps 734 mmHg 97%
    05:00 +7°C° 3 mm 3 mps 734 mmHg 97%
    06:00 +7°C° 3 mm 3 mps 734 mmHg 97%
    07:00 +7°C° 3.7 mm 3 mps 734 mmHg 97%
    08:00 +7°C° 3.7 mm 3 mps 733 mmHg 97%
    09:00 +7°C° 3.7 mm 3 mps 733 mmHg 97%
    10:00 +7°C° 1.8 mm 3 mps 733 mmHg 97%
    11:00 +8°C° 1.8 mm 3 mps 733 mmHg 96%
    12:00 +8°C° 1.8 mm 3 mps 733 mmHg 96%
    13:00 +9°C° 1.1 mm 3 mps 733 mmHg 94%
    14:00 +10°C° 1.1 mm 4 mps 733 mmHg 92%
    15:00 +11°C° 1.1 mm 4 mps 733 mmHg 90%
    16:00 +11°C° 0.4 mm 3 mps 733 mmHg 89%
    17:00 +11°C° 0.4 mm 3 mps 733 mmHg 89%
    18:00 +12°C° 0.4 mm 2 mps 733 mmHg 88%
    19:00 +12°C° 0.2 mm 2 mps 734 mmHg 89%
    20:00 +10°C° 0.2 mm 2 mps 734 mmHg 90%
    21:00 +9°C° 0.2 mm 2 mps 734 mmHg 91%
    22:00 +9°C° 0 mm 2 mps 734 mmHg 91%
    23:00 +9°C° 0 mm 3 mps 734 mmHg 91%
    Show more